Time,TemperatureF,DewpointF,PressureIn,WindDirection,WindDirectionDegrees,WindSpeedMPH,WindSpeedGustMPH,Humidity,HourlyPrecipIn,Conditions,Clouds,dailyrainin,SoftwareType,DateUTC
2013-01-20 00:00:00,34.3,26.9,29.88,West,270,0.0,0.0,74,0.00,,,0.00,pywws,2013-01-20 05:00:00,
2013-01-20 00:01:00,35.2,27.8,29.87,West,270,0.0,0.0,74,0.00,,,0.00,pywws,2013-01-20 05:01:00,
2013-01-20 00:03:00,35.8,28.0,29.87,SE,135,0.0,0.0,73,0.00,,,0.00,pywws,2013-01-20 05:03:00,
2013-01-20 00:04:00,36.1,28.3,29.88,West,270,0.0,0.0,73,0.00,,,0.00,pywws,2013-01-20 05:04:00,
2013-01-20 00:09:00,37.6,30.7,29.87,East,90,0.0,0.0,76,0.00,,,0.00,pywws,2013-01-20 05:09:00,
2013-01-20 00:15:00,36.1,27.3,29.87,East,90,0.0,0.0,70,0.00,,,0.00,pywws,2013-01-20 05:15:00,
2013-01-20 00:21:00,35.2,26.8,29.87,East,90,0.0,0.0,71,0.00,,,0.00,pywws,2013-01-20 05:21:00,
2013-01-20 00:26:00,34.3,25.9,29.86,North,0,0.0,0.0,71,0.00,,,0.00,pywws,2013-01-20 05:26:00,
2013-01-20 00:32:00,34.7,26.6,29.87,West,270,0.0,0.0,72,0.00,,,0.00,pywws,2013-01-20 05:32:00,
2013-01-20 00:37:00,34.2,26.1,29.87,West,270,0.0,0.0,72,0.00,,,0.00,pywws,2013-01-20 05:37:00,
2013-01-20 00:43:00,33.6,25.9,29.86,South,180,0.0,0.0,73,0.00,,,0.00,pywws,2013-01-20 05:43:00,
2013-01-20 00:49:00,33.6,25.9,29.85,South,180,0.0,0.0,73,0.00,,,0.00,pywws,2013-01-20 05:49:00,
2013-01-20 00:54:00,33.8,26.1,29.85,West,270,0.0,0.0,73,0.00,,,0.00,pywws,2013-01-20 05:54:00,
2013-01-20 01:00:00,33.6,26.2,29.84,North,0,0.0,0.0,74,0.00,,,0.00,pywws,2013-01-20 06:00:00,
2013-01-20 01:05:00,34.9,27.1,29.84,East,90,0.0,0.0,73,0.00,,,0.00,pywws,2013-01-20 06:05:00,
2013-01-20 01:11:00,36.0,27.8,29.84,South,180,0.0,0.0,72,0.00,,,0.00,pywws,2013-01-20 06:11:00,
2013-01-20 01:17:00,39.0,31.8,29.84,West,270,0.0,0.0,75,0.00,,,0.00,pywws,2013-01-20 06:17:00,
2013-01-20 01:23:00,38.7,30.4,29.83,SW,225,0.0,0.0,72,0.00,,,0.00,pywws,2013-01-20 06:23:00,
2013-01-20 01:29:00,39.7,30.8,29.83,SE,135,0.0,0.0,70,0.00,,,0.00,pywws,2013-01-20 06:29:00,
2013-01-20 01:34:00,39.2,29.5,29.83,South,180,0.0,0.7,68,0.00,,,0.00,pywws,2013-01-20 06:34:00,
2013-01-20 01:40:00,39.0,29.7,29.83,SW,225,0.0,0.0,69,0.00,,,0.00,pywws,2013-01-20 06:40:00,
2013-01-20 01:45:00,39.4,29.3,29.83,East,90,0.0,0.0,67,0.00,,,0.00,pywws,2013-01-20 06:45:00,
2013-01-20 01:51:00,39.9,29.9,29.82,East,90,0.0,0.0,67,0.00,,,0.00,pywws,2013-01-20 06:51:00,
2013-01-20 01:57:00,40.5,30.0,29.82,SW,225,0.0,0.0,66,0.00,,,0.00,pywws,2013-01-20 06:57:00,
2013-01-20 02:02:00,39.9,29.5,29.82,SW,225,0.0,0.0,66,0.00,,,0.00,pywws,2013-01-20 07:02:00,
2013-01-20 02:08:00,39.7,29.3,29.82,West,270,0.0,0.0,66,0.00,,,0.00,pywws,2013-01-20 07:08:00,
2013-01-20 02:13:00,39.7,29.3,29.82,North,0,0.0,0.0,66,0.00,,,0.00,pywws,2013-01-20 07:13:00,
2013-01-20 02:19:00,39.2,28.8,29.81,SW,225,0.0,0.7,66,0.00,,,0.00,pywws,2013-01-20 07:19:00,
2013-01-20 02:25:00,39.9,29.5,29.81,West,270,0.0,0.0,66,0.00,,,0.00,pywws,2013-01-20 07:25:00,
2013-01-20 02:30:00,39.4,29.0,29.81,East,90,0.0,0.0,66,0.00,,,0.00,pywws,2013-01-20 07:30:00,
2013-01-20 02:36:00,39.4,29.0,29.81,West,270,0.0,0.0,66,0.00,,,0.00,pywws,2013-01-20 07:36:00,
2013-01-20 02:41:00,38.7,28.7,29.80,West,270,0.0,0.0,67,0.00,,,0.00,pywws,2013-01-20 07:41:00,
2013-01-20 02:47:00,39.7,29.3,29.80,SE,135,0.0,0.0,66,0.00,,,0.00,pywws,2013-01-20 07:47:00,
2013-01-20 02:53:00,39.7,29.3,29.80,South,180,0.0,0.0,66,0.00,,,0.00,pywws,2013-01-20 07:53:00,
2013-01-20 02:59:00,40.3,29.5,29.80,South,180,0.0,0.0,65,0.00,,,0.00,pywws,2013-01-20 07:59:00,
2013-01-20 03:05:00,40.3,29.5,29.80,North,0,0.7,4.5,65,0.00,,,0.00,pywws,2013-01-20 08:05:00,
2013-01-20 03:10:00,39.6,28.8,29.80,West,270,0.0,0.0,65,0.00,,,0.00,pywws,2013-01-20 08:10:00,
2013-01-20 03:16:00,39.6,28.8,29.79,South,180,0.0,0.0,65,0.00,,,0.00,pywws,2013-01-20 08:16:00,
2013-01-20 03:21:00,38.7,28.3,29.79,South,180,0.0,0.0,66,0.00,,,0.00,pywws,2013-01-20 08:21:00,
2013-01-20 03:27:00,38.7,28.7,29.79,West,270,0.0,0.0,67,0.00,,,0.00,pywws,2013-01-20 08:27:00,
2013-01-20 03:33:00,38.8,28.8,29.79,South,180,0.0,0.0,67,0.00,,,0.00,pywws,2013-01-20 08:33:00,
2013-01-20 03:41:00,37.2,26.2,29.79,South,180,0.0,0.0,64,0.00,,,0.00,pywws,2013-01-20 08:41:00,
2013-01-20 03:47:00,38.8,29.6,29.78,SW,225,0.0,1.6,69,0.00,,,0.00,pywws,2013-01-20 08:47:00,
2013-01-20 03:53:00,39.4,29.3,29.78,West,270,0.0,0.0,67,0.00,,,0.00,pywws,2013-01-20 08:53:00,
2013-01-20 03:58:00,38.5,28.9,29.77,SW,225,0.0,0.7,68,0.00,,,0.00,pywws,2013-01-20 08:58:00,
2013-01-20 04:04:00,38.8,28.8,29.76,West,270,0.0,0.0,67,0.00,,,0.00,pywws,2013-01-20 09:04:00,
2013-01-20 04:09:00,38.3,28.7,29.76,West,270,0.0,0.7,68,0.00,,,0.00,pywws,2013-01-20 09:09:00,
2013-01-20 04:15:00,39.2,29.2,29.75,West,270,0.0,0.7,67,0.00,,,0.00,pywws,2013-01-20 09:15:00,
2013-01-20 04:21:00,38.8,29.2,29.75,West,270,0.0,0.7,68,0.00,,,0.00,pywws,2013-01-20 09:21:00,
2013-01-20 04:26:00,38.8,29.2,29.75,West,270,0.0,0.0,68,0.00,,,0.00,pywws,2013-01-20 09:26:00,
2013-01-20 04:31:00,38.3,28.7,29.75,East,90,0.0,0.0,68,0.00,,,0.00,pywws,2013-01-20 09:31:00,
2013-01-20 04:37:00,37.4,27.8,29.75,South,180,0.0,0.0,68,0.00,,,0.00,pywws,2013-01-20 09:37:00,
2013-01-20 04:42:00,37.2,26.6,29.75,East,90,0.0,0.0,65,0.00,,,0.00,pywws,2013-01-20 09:42:00,
2013-01-20 04:48:00,37.6,28.3,29.74,SW,225,0.0,0.0,69,0.00,,,0.00,pywws,2013-01-20 09:48:00,
2013-01-20 04:53:00,38.3,29.0,29.74,West,270,0.0,0.7,69,0.00,,,0.00,pywws,2013-01-20 09:53:00,
2013-01-20 04:59:00,38.1,28.9,29.74,West,270,0.0,0.7,69,0.00,,,0.00,pywws,2013-01-20 09:59:00,
2013-01-20 05:05:00,37.9,28.7,29.73,South,180,0.0,0.7,69,0.00,,,0.00,pywws,2013-01-20 10:05:00,
2013-01-20 05:10:00,38.3,28.7,29.72,West,270,0.0,3.8,68,0.00,,,0.00,pywws,2013-01-20 10:10:00,
2013-01-20 05:16:00,38.1,28.5,29.72,NW,315,0.0,1.6,68,0.00,,,0.00,pywws,2013-01-20 10:16:00,
2013-01-20 05:21:00,37.8,28.2,29.71,South,180,0.0,0.0,68,0.00,,,0.00,pywws,2013-01-20 10:21:00,
2013-01-20 05:27:00,38.3,29.0,29.70,South,180,3.8,8.3,69,0.00,,,0.00,pywws,2013-01-20 10:27:00,
2013-01-20 05:33:00,39.0,29.4,29.70,South,180,0.0,0.0,68,0.00,,,0.00,pywws,2013-01-20 10:33:00,
2013-01-20 05:39:00,38.7,29.0,29.70,SW,225,2.2,4.5,68,0.00,,,0.00,pywws,2013-01-20 10:39:00,
2013-01-20 05:45:00,38.3,28.3,29.70,South,180,0.0,0.0,67,0.00,,,0.00,pywws,2013-01-20 10:45:00,
2013-01-20 05:50:00,38.7,28.7,29.69,South,180,0.0,0.0,67,0.00,,,0.00,pywws,2013-01-20 10:50:00,
2013-01-20 05:56:00,38.5,28.5,29.69,SE,135,0.0,3.1,67,0.00,,,0.00,pywws,2013-01-20 10:56:00,
2013-01-20 06:01:00,38.1,28.5,29.69,SE,135,0.0,0.7,68,0.00,,,0.00,pywws,2013-01-20 11:01:00,
2013-01-20 06:07:00,38.7,29.0,29.68,SE,135,0.7,3.8,68,0.00,,,0.00,pywws,2013-01-20 11:07:00,
2013-01-20 06:13:00,39.0,29.0,29.68,East,90,0.0,0.0,67,0.00,,,0.00,pywws,2013-01-20 11:13:00,
2013-01-20 06:19:00,38.7,28.7,29.68,South,180,0.0,5.4,67,0.00,,,0.00,pywws,2013-01-20 11:19:00,
2013-01-20 06:25:00,38.5,28.5,29.68,SW,225,0.0,0.7,67,0.00,,,0.00,pywws,2013-01-20 11:25:00,
2013-01-20 06:31:00,37.9,28.0,29.68,South,180,0.0,0.0,67,0.00,,,0.00,pywws,2013-01-20 11:31:00,
2013-01-20 06:37:00,38.1,28.5,29.68,South,180,0.7,3.8,68,0.00,,,0.00,pywws,2013-01-20 11:37:00,
2013-01-20 06:42:00,37.8,28.2,29.68,SW,225,0.0,0.0,68,0.00,,,0.00,pywws,2013-01-20 11:42:00,
2013-01-20 06:48:00,38.1,28.5,29.68,North,0,0.0,0.7,68,0.00,,,0.00,pywws,2013-01-20 11:48:00,
2013-01-20 06:53:00,38.5,28.9,29.68,South,180,0.0,0.0,68,0.00,,,0.00,pywws,2013-01-20 11:53:00,
2013-01-20 06:59:00,38.5,28.5,29.68,SW,225,0.0,0.0,67,0.00,,,0.00,pywws,2013-01-20 11:59:00,
2013-01-20 07:05:00,38.3,28.3,29.67,SE,135,0.7,5.4,67,0.00,,,0.00,pywws,2013-01-20 12:05:00,
2013-01-20 07:11:00,38.3,28.3,29.67,North,0,0.0,2.2,67,0.00,,,0.00,pywws,2013-01-20 12:11:00,
2013-01-20 07:17:00,38.5,28.5,29.67,SE,135,0.0,3.1,67,0.00,,,0.00,pywws,2013-01-20 12:17:00,
2013-01-20 07:22:00,38.3,28.3,29.67,West,270,0.0,3.1,67,0.00,,,0.00,pywws,2013-01-20 12:22:00,
2013-01-20 07:28:00,38.5,28.5,29.66,West,270,1.6,5.4,67,0.00,,,0.00,pywws,2013-01-20 12:28:00,
2013-01-20 07:33:00,38.7,28.7,29.66,South,180,0.0,0.0,67,0.00,,,0.00,pywws,2013-01-20 12:33:00,
2013-01-20 07:39:00,38.1,28.1,29.65,East,90,0.0,0.0,67,0.00,,,0.00,pywws,2013-01-20 12:39:00,
2013-01-20 07:45:00,39.2,28.8,29.65,North,0,1.6,4.5,66,0.00,,,0.00,pywws,2013-01-20 12:45:00,
2013-01-20 07:51:00,39.0,28.6,29.65,SE,135,0.0,1.6,66,0.00,,,0.00,pywws,2013-01-20 12:51:00,
2013-01-20 07:57:00,39.2,28.4,29.65,South,180,0.7,3.8,65,0.00,,,0.00,pywws,2013-01-20 12:57:00,
2013-01-20 08:03:00,39.4,28.6,29.65,East,90,0.7,3.1,65,0.00,,,0.00,pywws,2013-01-20 13:03:00,
2013-01-20 08:09:00,39.7,29.0,29.65,West,270,0.7,3.1,65,0.00,,,0.00,pywws,2013-01-20 13:09:00,
2013-01-20 08:15:00,39.9,28.7,29.65,SW,225,0.0,0.0,64,0.00,,,0.00,pywws,2013-01-20 13:15:00,
2013-01-20 08:21:00,40.1,28.9,29.65,East,90,2.2,6.9,64,0.00,,,0.00,pywws,2013-01-20 13:21:00,
2013-01-20 08:26:00,40.5,29.3,29.65,East,90,2.2,9.8,64,0.00,,,0.00,pywws,2013-01-20 13:26:00,
2013-01-20 08:32:00,40.8,29.2,29.65,SW,225,0.7,5.4,63,0.00,,,0.00,pywws,2013-01-20 13:32:00,
2013-01-20 08:37:00,40.8,29.2,29.65,SE,135,1.6,6.9,63,0.00,,,0.00,pywws,2013-01-20 13:37:00,
2013-01-20 08:43:00,41.4,28.9,29.65,West,270,1.6,4.5,61,0.00,,,0.00,pywws,2013-01-20 13:43:00,
2013-01-20 08:49:00,41.5,28.7,29.65,North,0,3.8,10.7,60,0.00,,,0.00,pywws,2013-01-20 13:49:00,
2013-01-20 08:54:00,41.9,28.6,29.65,North,0,0.0,1.6,59,0.00,,,0.00,pywws,2013-01-20 13:54:00,
2013-01-20 09:00:00,42.3,28.6,29.65,North,0,1.6,9.2,58,0.00,,,0.00,pywws,2013-01-20 14:00:00,
2013-01-20 09:05:00,42.4,28.7,29.65,South,180,1.6,6.9,58,0.00,,,0.00,pywws,2013-01-20 14:05:00,
2013-01-20 09:11:00,42.8,28.2,29.65,North,0,1.6,4.5,56,0.00,,,0.00,pywws,2013-01-20 14:11:00,
2013-01-20 09:17:00,43.0,28.4,29.65,South,180,2.2,10.7,56,0.00,,,0.00,pywws,2013-01-20 14:17:00,
2013-01-20 09:23:00,43.3,28.3,29.65,West,270,3.1,6.9,55,0.00,,,0.00,pywws,2013-01-20 14:23:00,
2013-01-20 09:29:00,43.3,28.3,29.65,SW,225,0.0,2.2,55,0.00,,,0.00,pywws,2013-01-20 14:29:00,
2013-01-20 09:34:00,43.9,28.8,29.65,South,180,5.4,11.4,55,0.00,,,0.00,pywws,2013-01-20 14:34:00,
2013-01-20 09:40:00,44.2,28.7,29.65,South,180,0.7,3.1,54,0.00,,,0.00,pywws,2013-01-20 14:40:00,
2013-01-20 09:45:00,44.8,28.7,29.65,West,270,0.0,1.6,53,0.00,,,0.00,pywws,2013-01-20 14:45:00,
2013-01-20 09:51:00,45.1,28.6,29.65,West,270,2.2,7.6,52,0.00,,,0.00,pywws,2013-01-20 14:51:00,
2013-01-20 09:57:00,45.7,28.6,29.64,South,180,1.6,9.8,51,0.00,,,0.00,pywws,2013-01-20 14:57:00,
2013-01-20 10:03:00,46.4,29.3,29.64,East,90,3.1,8.3,51,0.00,,,0.00,pywws,2013-01-20 15:03:00,
2013-01-20 10:09:00,46.6,28.9,29.64,SE,135,0.7,6.0,50,0.00,,,0.00,pywws,2013-01-20 15:09:00,
2013-01-20 10:15:00,47.5,29.3,29.63,East,90,0.0,2.2,49,0.00,,,0.00,pywws,2013-01-20 15:15:00,
2013-01-20 10:21:00,48.0,29.8,29.63,East,90,0.7,4.5,49,0.00,,,0.00,pywws,2013-01-20 15:21:00,
2013-01-20 10:27:00,48.9,29.6,29.62,SE,135,0.7,3.8,47,0.00,,,0.00,pywws,2013-01-20 15:27:00,
2013-01-20 10:33:00,49.6,29.7,29.62,SW,225,3.1,6.0,46,0.00,,,0.00,pywws,2013-01-20 15:33:00,
2013-01-20 10:39:00,50.4,29.3,29.61,SE,135,2.2,6.9,44,0.00,,,0.00,pywws,2013-01-20 15:39:00,
2013-01-20 10:45:00,50.5,29.4,29.61,NE,45,1.6,6.0,44,0.00,,,0.00,pywws,2013-01-20 15:45:00,
2013-01-20 10:50:00,52.3,29.9,29.61,West,270,2.2,9.2,42,0.00,,,0.00,pywws,2013-01-20 15:50:00,
2013-01-20 10:56:00,51.8,29.4,29.60,NE,45,0.7,3.8,42,0.00,,,0.00,pywws,2013-01-20 15:56:00,
2013-01-20 11:01:00,52.2,29.8,29.59,South,180,0.0,2.2,42,0.00,,,0.00,pywws,2013-01-20 16:01:00,
2013-01-20 11:07:00,52.5,28.9,29.59,South,180,0.0,3.8,40,0.00,,,0.00,pywws,2013-01-20 16:07:00,
2013-01-20 11:13:00,52.2,27.3,29.58,NW,315,3.8,11.4,38,0.00,,,0.00,pywws,2013-01-20 16:13:00,
2013-01-20 11:19:00,51.8,28.3,29.58,SE,135,3.1,17.5,40,0.00,,,0.00,pywws,2013-01-20 16:19:00,
2013-01-20 11:25:00,51.6,28.1,29.58,East,90,5.4,18.3,40,0.00,,,0.00,pywws,2013-01-20 16:25:00,
2013-01-20 11:30:00,51.8,27.0,29.58,West,270,4.5,12.1,38,0.00,,,0.00,pywws,2013-01-20 16:30:00,
2013-01-20 11:36:00,52.0,27.2,29.57,East,90,3.8,9.2,38,0.00,,,0.00,pywws,2013-01-20 16:36:00,
2013-01-20 11:41:00,52.0,27.2,29.57,West,270,1.6,5.4,38,0.00,,,0.00,pywws,2013-01-20 16:41:00,
2013-01-20 11:47:00,52.0,27.2,29.57,SE,135,0.0,0.7,38,0.00,,,0.00,pywws,2013-01-20 16:47:00,
2013-01-20 11:53:00,51.8,27.6,29.57,East,90,2.2,5.4,39,0.00,,,0.00,pywws,2013-01-20 16:53:00,
2013-01-20 11:58:00,51.8,27.0,29.57,SE,135,0.7,4.5,38,0.00,,,0.00,pywws,2013-01-20 16:58:00,
2013-01-20 12:04:00,52.0,27.2,29.57,NW,315,0.0,0.0,38,0.00,,,0.00,pywws,2013-01-20 17:04:00,
2013-01-20 12:09:00,51.4,27.3,29.57,North,0,0.7,6.9,39,0.00,,,0.00,pywws,2013-01-20 17:09:00,
2013-01-20 12:15:00,51.4,27.3,29.56,SE,135,9.2,16.8,39,0.00,,,0.00,pywws,2013-01-20 17:15:00,
2013-01-20 12:21:00,51.4,27.9,29.57,West,270,0.7,6.9,40,0.00,,,0.00,pywws,2013-01-20 17:21:00,
2013-01-20 12:26:00,51.8,28.3,29.57,East,90,1.6,7.6,40,0.00,,,0.00,pywws,2013-01-20 17:26:00,
2013-01-20 12:32:00,51.8,27.0,29.57,West,270,0.7,2.2,38,0.00,,,0.00,pywws,2013-01-20 17:32:00,
2013-01-20 12:37:00,51.6,27.5,29.57,South,180,1.6,6.9,39,0.00,,,0.00,pywws,2013-01-20 17:37:00,
2013-01-20 12:43:00,52.0,27.2,29.57,South,180,4.5,11.4,38,0.00,,,0.00,pywws,2013-01-20 17:43:00,
2013-01-20 12:49:00,52.0,27.2,29.57,SE,135,0.7,3.8,38,0.00,,,0.00,pywws,2013-01-20 17:49:00,
2013-01-20 12:54:00,51.4,27.9,29.57,SW,225,0.0,1.6,40,0.00,,,0.00,pywws,2013-01-20 17:54:00,
2013-01-20 13:00:00,50.9,27.4,29.58,NW,315,4.5,13.0,40,0.00,,,0.00,pywws,2013-01-20 18:00:00,
2013-01-20 13:05:00,50.7,27.9,29.58,SW,225,3.1,12.1,41,0.00,,,0.00,pywws,2013-01-20 18:05:00,
2013-01-20 13:11:00,50.7,28.5,29.57,NE,45,0.7,3.1,42,0.00,,,0.00,pywws,2013-01-20 18:11:00,
2013-01-20 13:17:00,50.4,28.1,29.58,South,180,3.1,11.4,42,0.00,,,0.00,pywws,2013-01-20 18:17:00,
2013-01-20 13:22:00,49.5,28.5,29.59,NW,315,1.6,5.4,44,0.00,,,0.00,pywws,2013-01-20 18:22:00,
2013-01-20 13:28:00,49.3,28.3,29.59,SE,135,0.0,3.1,44,0.00,,,0.00,pywws,2013-01-20 18:28:00,
2013-01-20 13:33:00,48.9,28.0,29.59,South,180,0.0,1.6,44,0.00,,,0.00,pywws,2013-01-20 18:33:00,
2013-01-20 13:39:00,48.7,27.8,29.59,West,270,0.0,3.8,44,0.00,,,0.00,pywws,2013-01-20 18:39:00,
2013-01-20 13:45:00,48.6,28.2,29.60,West,270,0.0,6.0,45,0.00,,,0.00,pywws,2013-01-20 18:45:00,
2013-01-20 13:50:00,47.3,28.1,29.61,North,0,1.6,9.2,47,0.00,,,0.00,pywws,2013-01-20 18:50:00,
2013-01-20 13:56:00,46.8,29.1,29.61,NW,315,1.6,5.4,50,0.00,,,0.00,pywws,2013-01-20 18:56:00,
2013-01-20 14:01:00,46.2,29.1,29.62,West,270,0.0,0.7,51,0.00,,,0.00,pywws,2013-01-20 19:01:00,
2013-01-20 14:07:00,45.9,28.8,29.62,North,0,0.7,5.4,51,0.00,,,0.00,pywws,2013-01-20 19:07:00,
2013-01-20 14:13:00,45.7,28.6,29.62,NE,45,0.0,0.7,51,0.00,,,0.00,pywws,2013-01-20 19:13:00,
2013-01-20 14:19:00,45.3,28.3,29.63,NW,315,0.7,5.4,51,0.00,,,0.00,pywws,2013-01-20 19:19:00,
2013-01-20 14:25:00,46.2,29.1,29.64,North,0,0.0,0.7,51,0.00,,,0.00,pywws,2013-01-20 19:25:00,
2013-01-20 14:30:00,45.5,28.4,29.64,West,270,0.0,0.7,51,0.00,,,0.00,pywws,2013-01-20 19:30:00,
2013-01-20 14:36:00,45.7,28.1,29.64,NE,45,0.7,6.0,50,0.00,,,0.00,pywws,2013-01-20 19:36:00,
2013-01-20 14:41:00,45.5,27.0,29.64,West,270,2.2,6.9,48,0.00,,,0.00,pywws,2013-01-20 19:41:00,
2013-01-20 14:47:00,46.0,26.9,29.64,North,0,0.0,4.5,47,0.00,,,0.00,pywws,2013-01-20 19:47:00,
2013-01-20 14:53:00,46.6,27.4,29.65,South,180,0.0,0.0,47,0.00,,,0.00,pywws,2013-01-20 19:53:00,
2013-01-20 14:59:00,45.9,25.7,29.65,West,270,0.0,0.0,45,0.00,,,0.00,pywws,2013-01-20 19:59:00,
2013-01-20 15:05:00,45.9,24.6,29.65,West,270,0.0,1.6,43,0.00,,,0.00,pywws,2013-01-20 20:05:00,
2013-01-20 15:11:00,46.8,26.6,29.65,West,270,0.0,0.7,45,0.00,,,0.00,pywws,2013-01-20 20:11:00,
2013-01-20 15:17:00,47.5,27.2,29.65,West,270,0.7,5.4,45,0.00,,,0.00,pywws,2013-01-20 20:17:00,
2013-01-20 15:22:00,45.9,24.1,29.66,South,180,0.0,0.0,42,0.00,,,0.00,pywws,2013-01-20 20:22:00,
2013-01-20 15:28:00,46.0,24.2,29.66,SW,225,0.0,0.0,42,0.00,,,0.00,pywws,2013-01-20 20:28:00,
2013-01-20 15:33:00,45.3,23.6,29.65,West,270,0.0,2.2,42,0.00,,,0.00,pywws,2013-01-20 20:33:00,
2013-01-20 15:39:00,45.9,25.2,29.66,South,180,0.0,0.0,44,0.00,,,0.00,pywws,2013-01-20 20:39:00,
2013-01-20 15:45:00,45.3,24.7,29.67,West,270,0.0,1.6,44,0.00,,,0.00,pywws,2013-01-20 20:45:00,
2013-01-20 15:50:00,45.5,24.3,29.67,North,0,0.0,0.0,43,0.00,,,0.00,pywws,2013-01-20 20:50:00,
2013-01-20 15:56:00,45.5,23.2,29.67,North,0,0.0,0.7,41,0.00,,,0.00,pywws,2013-01-20 20:56:00,
2013-01-20 16:01:00,45.7,20.9,29.67,South,180,0.0,0.7,37,0.00,,,0.00,pywws,2013-01-20 21:01:00,
2013-01-20 16:07:00,44.6,20.0,29.68,North,0,0.0,0.0,37,0.00,,,0.00,pywws,2013-01-20 21:07:00,
2013-01-20 16:13:00,44.8,20.1,29.68,NW,315,0.0,0.0,37,0.00,,,0.00,pywws,2013-01-20 21:13:00,
2013-01-20 16:18:00,44.6,18.0,29.69,NW,315,0.0,0.0,34,0.00,,,0.00,pywws,2013-01-20 21:18:00,
2013-01-20 16:24:00,43.7,12.8,29.70,SE,135,0.0,2.2,28,0.00,,,0.00,pywws,2013-01-20 21:24:00,
2013-01-20 16:29:00,43.5,10.1,29.70,North,0,0.7,6.9,25,0.00,,,0.00,pywws,2013-01-20 21:29:00,
2013-01-20 16:35:00,43.2,8.8,29.70,West,270,1.6,6.0,24,0.00,,,0.00,pywws,2013-01-20 21:35:00,
2013-01-20 16:41:00,42.8,8.5,29.71,North,0,0.0,0.0,24,0.00,,,0.00,pywws,2013-01-20 21:41:00,
2013-01-20 16:46:00,41.9,9.5,29.72,West,270,0.0,4.5,26,0.00,,,0.00,pywws,2013-01-20 21:46:00,
2013-01-20 16:52:00,41.9,10.4,29.73,West,270,0.0,3.1,27,0.00,,,0.00,pywws,2013-01-20 21:52:00,
2013-01-20 16:57:00,41.4,10.7,29.73,South,180,0.0,0.7,28,0.00,,,0.00,pywws,2013-01-20 21:57:00,
2013-01-20 17:03:00,40.3,11.3,29.74,West,270,2.2,9.2,30,0.00,,,0.00,pywws,2013-01-20 22:03:00,
2013-01-20 17:09:00,40.5,11.5,29.74,West,270,3.8,13.6,30,0.00,,,0.00,pywws,2013-01-20 22:09:00,
2013-01-20 17:14:00,39.9,11.8,29.75,West,270,0.0,0.0,31,0.00,,,0.00,pywws,2013-01-20 22:14:00,
2013-01-20 17:20:00,39.6,12.9,29.75,North,0,0.7,2.2,33,0.00,,,0.00,pywws,2013-01-20 22:20:00,
2013-01-20 17:25:00,38.7,14.0,29.77,North,0,0.0,0.0,36,0.00,,,0.00,pywws,2013-01-20 22:25:00,
2013-01-20 17:32:00,38.1,14.2,29.76,North,0,0.0,2.2,37,0.00,,,0.00,pywws,2013-01-20 22:32:00,
2013-01-20 17:37:00,37.8,15.1,29.78,North,0,0.0,0.7,39,0.00,,,0.00,pywws,2013-01-20 22:37:00,
2013-01-20 17:42:00,37.4,14.7,29.78,West,270,0.0,0.0,39,0.00,,,0.00,pywws,2013-01-20 22:42:00,
2013-01-20 17:48:00,37.0,12.6,29.78,SE,135,0.0,3.1,36,0.00,,,0.00,pywws,2013-01-20 22:48:00,
2013-01-20 17:53:00,36.7,12.9,29.78,North,0,0.7,4.5,37,0.00,,,0.00,pywws,2013-01-20 22:53:00,
2013-01-20 17:59:00,36.3,13.8,29.79,North,0,0.0,0.7,39,0.00,,,0.00,pywws,2013-01-20 22:59:00,
2013-01-20 18:05:00,36.1,14.2,29.79,SW,225,2.2,6.9,40,0.00,,,0.00,pywws,2013-01-20 23:05:00,
2013-01-20 18:10:00,35.8,13.9,29.80,North,0,0.7,6.0,40,0.00,,,0.00,pywws,2013-01-20 23:10:00,
2013-01-20 18:16:00,35.2,14.5,29.80,North,0,0.0,1.6,42,0.00,,,0.00,pywws,2013-01-20 23:16:00,
2013-01-20 18:21:00,34.9,14.1,29.80,SE,135,0.0,0.0,42,0.00,,,0.00,pywws,2013-01-20 23:21:00,
2013-01-20 18:27:00,34.9,14.1,29.80,NW,315,0.7,3.8,42,0.00,,,0.00,pywws,2013-01-20 23:27:00,
2013-01-20 18:33:00,35.1,14.3,29.81,North,0,0.0,0.7,42,0.00,,,0.00,pywws,2013-01-20 23:33:00,
2013-01-20 18:38:00,34.7,14.0,29.82,NW,315,0.7,4.5,42,0.00,,,0.00,pywws,2013-01-20 23:38:00,
2013-01-20 18:44:00,34.0,13.3,29.82,West,270,0.0,1.6,42,0.00,,,0.00,pywws,2013-01-20 23:44:00,
2013-01-20 18:49:00,34.0,13.3,29.82,NW,315,0.0,3.1,42,0.00,,,0.00,pywws,2013-01-20 23:49:00,
2013-01-20 18:55:00,33.8,13.2,29.83,North,0,0.0,0.0,42,0.00,,,0.00,pywws,2013-01-20 23:55:00,
2013-01-20 19:01:00,33.8,13.2,29.82,NE,45,0.0,0.7,42,0.00,,,0.00,pywws,2013-01-21 00:01:00,
2013-01-20 19:06:00,33.6,13.5,29.83,SW,225,0.0,0.7,43,0.00,,,0.00,pywws,2013-01-21 00:06:00,
2013-01-20 19:12:00,33.1,13.0,29.82,NW,315,0.0,0.0,43,0.00,,,0.00,pywws,2013-01-21 00:12:00,
2013-01-20 19:17:00,33.1,13.0,29.83,NW,315,0.0,0.0,43,0.00,,,0.00,pywws,2013-01-21 00:17:00,
2013-01-20 19:23:00,32.9,12.9,29.83,North,0,0.0,4.5,43,0.00,,,0.00,pywws,2013-01-21 00:23:00,
2013-01-20 19:29:00,32.5,12.6,29.83,NW,315,3.8,8.3,43,0.00,,,0.00,pywws,2013-01-21 00:29:00,
2013-01-20 19:34:00,32.2,12.2,29.83,West,270,0.7,3.1,43,0.00,,,0.00,pywws,2013-01-21 00:34:00,
2013-01-20 19:40:00,32.0,12.1,29.84,NW,315,0.0,3.8,43,0.00,,,0.00,pywws,2013-01-21 00:40:00,
2013-01-20 19:45:00,31.8,12.4,29.84,NW,315,0.0,0.0,44,0.00,,,0.00,pywws,2013-01-21 00:45:00,
2013-01-20 19:52:00,31.6,12.3,29.84,North,0,0.0,0.0,44,0.00,,,0.00,pywws,2013-01-21 00:52:00,
2013-01-20 19:57:00,31.6,11.2,29.85,North,0,0.0,0.0,42,0.00,,,0.00,pywws,2013-01-21 00:57:00,
2013-01-20 20:02:00,31.5,9.4,29.85,North,0,0.0,1.6,39,0.00,,,0.00,pywws,2013-01-21 01:02:00,
2013-01-20 20:08:00,31.3,8.7,29.85,NW,315,0.0,0.0,38,0.00,,,0.00,pywws,2013-01-21 01:08:00,
2013-01-20 20:13:00,31.1,7.9,29.86,NW,315,3.1,6.0,37,0.00,,,0.00,pywws,2013-01-21 01:13:00,
2013-01-20 20:19:00,30.7,7.0,29.87,North,0,9.2,16.8,36,0.00,,,0.00,pywws,2013-01-21 01:19:00,
2013-01-20 20:25:00,30.9,5.9,29.87,East,90,0.0,5.4,34,0.00,,,0.00,pywws,2013-01-21 01:25:00,
2013-01-20 20:30:00,30.2,5.2,29.88,North,0,0.7,3.8,34,0.00,,,0.00,pywws,2013-01-21 01:30:00,
2013-01-20 20:36:00,30.2,5.9,29.88,West,270,0.7,4.5,35,0.00,,,0.00,pywws,2013-01-21 01:36:00,
2013-01-20 20:41:00,30.0,6.3,29.89,South,180,0.0,3.1,36,0.00,,,0.00,pywws,2013-01-21 01:41:00,
2013-01-20 20:47:00,29.8,6.2,29.89,South,180,4.5,11.4,36,0.00,,,0.00,pywws,2013-01-21 01:47:00,
2013-01-20 20:53:00,29.8,6.2,29.89,South,180,6.0,12.1,36,0.00,,,0.00,pywws,2013-01-21 01:53:00,
2013-01-20 20:58:00,29.7,6.0,29.90,West,270,2.2,11.4,36,0.00,,,0.00,pywws,2013-01-21 01:58:00,
2013-01-20 21:04:00,29.5,5.9,29.90,NW,315,0.7,5.4,36,0.00,,,0.00,pywws,2013-01-21 02:04:00,
2013-01-20 21:09:00,29.3,5.7,29.90,South,180,0.0,1.6,36,0.00,,,0.00,pywws,2013-01-21 02:09:00,
2013-01-20 21:15:00,29.1,6.1,29.91,East,90,0.0,3.1,37,0.00,,,0.00,pywws,2013-01-21 02:15:00,
2013-01-20 21:21:00,29.3,5.1,29.90,South,180,0.0,0.7,35,0.00,,,0.00,pywws,2013-01-21 02:21:00,
2013-01-20 21:26:00,28.8,4.6,29.90,West,270,0.0,0.0,35,0.00,,,0.00,pywws,2013-01-21 02:26:00,
2013-01-20 21:32:00,28.6,5.1,29.90,South,180,0.0,3.8,36,0.00,,,0.00,pywws,2013-01-21 02:32:00,
2013-01-20 21:38:00,28.8,4.6,29.90,West,270,0.0,0.0,35,0.00,,,0.00,pywws,2013-01-21 02:38:00,
2013-01-20 21:44:00,28.4,4.9,29.90,North,0,0.0,0.0,36,0.00,,,0.00,pywws,2013-01-21 02:44:00,
2013-01-20 21:49:00,28.4,4.9,29.91,North,0,0.0,0.7,36,0.00,,,0.00,pywws,2013-01-21 02:49:00,
2013-01-20 21:55:00,28.6,5.1,29.91,North,0,0.0,0.0,36,0.00,,,0.00,pywws,2013-01-21 02:55:00,
2013-01-20 22:01:00,28.6,5.1,29.91,NW,315,0.0,2.2,36,0.00,,,0.00,pywws,2013-01-21 03:01:00,
2013-01-20 22:07:00,28.4,4.9,29.91,North,0,0.0,0.0,36,0.00,,,0.00,pywws,2013-01-21 03:07:00,
2013-01-20 22:13:00,28.2,2.9,29.91,West,270,0.7,4.5,33,0.00,,,0.00,pywws,2013-01-21 03:13:00,
2013-01-20 22:18:00,28.2,2.2,29.92,North,0,0.0,0.0,32,0.00,,,0.00,pywws,2013-01-21 03:18:00,
2013-01-20 22:24:00,28.4,4.9,29.92,South,180,0.0,0.7,36,0.00,,,0.00,pywws,2013-01-21 03:24:00,
2013-01-20 22:29:00,28.2,2.2,29.93,North,0,0.0,0.0,32,0.00,,,0.00,pywws,2013-01-21 03:29:00,
2013-01-20 22:35:00,27.7,2.4,29.92,NW,315,0.0,0.0,33,0.00,,,0.00,pywws,2013-01-21 03:35:00,
2013-01-20 22:41:00,27.7,3.0,29.92,West,270,0.0,0.0,34,0.00,,,0.00,pywws,2013-01-21 03:41:00,
2013-01-20 22:46:00,27.7,3.6,29.92,NW,315,0.0,0.0,35,0.00,,,0.00,pywws,2013-01-21 03:46:00,
2013-01-20 22:52:00,27.5,4.1,29.92,North,0,0.0,0.0,36,0.00,,,0.00,pywws,2013-01-21 03:52:00,
2013-01-20 22:57:00,28.0,4.0,29.92,NW,315,0.0,0.0,35,0.00,,,0.00,pywws,2013-01-21 03:57:00,
2013-01-20 23:03:00,27.9,3.2,29.92,NW,315,4.5,11.4,34,0.00,,,0.00,pywws,2013-01-21 04:03:00,
2013-01-20 23:09:00,27.9,3.2,29.93,North,0,0.0,0.7,34,0.00,,,0.00,pywws,2013-01-21 04:09:00,
2013-01-20 23:14:00,27.9,2.5,29.93,NW,315,1.6,6.0,33,0.00,,,0.00,pywws,2013-01-21 04:14:00,
2013-01-20 23:20:00,28.0,2.0,29.93,NW,315,0.7,5.4,32,0.00,,,0.00,pywws,2013-01-21 04:20:00,
2013-01-20 23:25:00,27.5,1.6,29.92,North,0,0.0,0.0,32,0.00,,,0.00,pywws,2013-01-21 04:25:00,
2013-01-20 23:31:00,27.7,2.4,29.93,South,180,2.2,5.4,33,0.00,,,0.00,pywws,2013-01-21 04:31:00,
2013-01-20 23:37:00,27.3,2.1,29.92,SE,135,0.0,0.0,33,0.00,,,0.00,pywws,2013-01-21 04:37:00,
2013-01-20 23:42:00,27.3,2.1,29.92,West,270,0.7,4.5,33,0.00,,,0.00,pywws,2013-01-21 04:42:00,
2013-01-20 23:48:00,27.1,2.5,29.92,West,270,0.0,1.6,34,0.00,,,0.00,pywws,2013-01-21 04:48:00,
2013-01-20 23:53:00,27.3,2.7,29.92,NW,315,0.0,0.0,34,0.00,,,0.00,pywws,2013-01-21 04:53:00,
2013-01-20 23:59:00,27.0,3.6,29.92,South,180,0.0,0.0,36,0.00,,,0.00,pywws,2013-01-21 04:59:00,